Flag for Turkey Weather past 2 weeks in Samsun, Turkey

Now
50 °F

Broken clouds.


Feels Like: 48 °F
Forecast: 44 / 52 °F
Wind: 6 mph from North

Location: Samsun / Carsamba

Current Time: Feb 28, 2015 at 4:11:19 PM

Latest Report: Feb 28, 2015 at 2:50 PM


Visibility: N/A

Pressure: 29.86 "Hg

Humidity: 88%

Dew point: 46 °F

Location of SamsunLocation

Historic Weather in Samsun — Graph

°F

Samsun temperature yesterday

Maximum temperature yesterday: 64 °F (at 2:50 PM)
Minimum temperature yesterday: 41 °F (at 5:50 AM)
Average temperature yesterday: 50 °F

Past Weeks' High & Low Weather Summary

 TemperatureHumidityPressure
High68 °F (Feb 26, 10:50 AM)100% (Feb 13, 8:50 PM)30.33 "Hg (Feb 13, 8:50 PM)
Low28 °F (Feb 18, 2:50 AM)20% (Feb 23, 11:50 AM)29.77 "Hg (Feb 28, 2:50 AM)
Average44 °F77%30.08 "Hg
* Reported Feb 13 2:50 PM — Feb 28 2:50 PM, Samsun, Weather by CustomWeather, © 2015

Note: Actual official high and low records may vary slightly from our data, if they occured in-between our weather recording intervals... More about our weather records

Advertising

Samsun weather history for previous 24 hours

 ConditionsComfort  
Time TempWeatherWind HumidityBarometerVisibility
2:50 PM
Sat, Feb 28
50 °FBroken clouds.6 mph88%29.86 "HgN/A
1:50 PM52 °FBroken clouds.12 mph82%29.86 "HgN/A
12:50 PM61 °FSprinkles. Partly sunny.16 mph52%29.83 "Hg5 mi
11:50 AM63 °FSprinkles. Partly sunny.13 mph45%29.83 "HgN/A
10:50 AM61 °FPartly sunny.9 mph48%29.83 "HgN/A
9:50 AM63 °FPartly sunny.15 mph42%29.80 "HgN/A
8:50 AM55 °FPartly sunny.6 mph59%29.80 "HgN/A
7:50 AM50 °FBroken clouds.5 mph76%29.80 "HgN/A
6:50 AM48 °FBroken clouds.3 mph76%29.80 "HgN/A
5:50 AM52 °FPartly cloudy.2 mph62%29.80 "HgN/A
4:50 AM50 °FPassing clouds.5 mph71%29.77 "HgN/A
3:50 AM48 °FPassing clouds.3 mph76%29.77 "Hg5 mi
2:50 AM45 °FPassing clouds.5 mph93%29.77 "Hg5 mi
1:50 AM45 °FPassing clouds.5 mph93%29.80 "Hg4 mi
12:50 AM43 °FPassing clouds.7 mph93%29.80 "Hg4 mi
11:50 PM
Fri, Feb 27
41 °FPassing clouds.5 mph100%29.83 "Hg4 mi
10:50 PM43 °FPassing clouds.1 mph93%29.80 "Hg5 mi
9:50 PM45 °FPassing clouds.3 mph93%29.80 "Hg5 mi
8:50 PM45 °FPassing clouds.3 mph93%29.83 "HgN/A
7:50 PM46 °FClear.5 mph87%29.83 "Hg10 mi
6:50 PM48 °FClear.5 mph87%29.86 "Hg10 mi
5:50 PM50 °FClear.No wind82%29.89 "Hg10 mi
4:50 PM54 °FBroken clouds.1 mph77%29.89 "HgN/A
Weather by CustomWeather, © 2015

See weather overviewHow to use our weather pages